(13) Egeria
ephemeris date magn radius delta ra dec elong phase
Today1 Jul 202512.02.360 AU3.246 AU08h23m+31°35'24.6°10.3°
Opposition19 Apr 202610.22.544 AU1.544 AU13h57m-04°45'173.2°2.7°
(13) Egeria - 2025-07-01
astro.vanbuitenen.nl


 
-1 year
-1 month
-1 day
Now
+1 day
+1 month
+1 year

The interactive orbit chart above shows the body's path through the solar system and its position at the given date. Green and blue lines are shown perpendicular to the ecliptic plane: Green if the path is above the ecliptic plane, blue if it is below. (Left-click and drag to rotate the view; Right-click and drag to move the view; Use scroll wheel to zoom in our out.)

The orbital elements of Egeria are:

            e (Eccentricity)                : 0.0849877
            a (Semimajor axis)              : 2.5771009
            i (Inclination)                 : 16.52551
            Ω (Longitude of ascending node) : 43.18830
            ω (Argument of perihelion)      : 79.09382
            M (Mean anomaly)                : 353.28831
            Epoch                           : 2025 May 05

            L (Longitude of perihelion)     : 121.82419
            B (Latitude of perihelion)      : 16.21871
            P (Orbital period in years)     : 4.14            
        

The light curve chart below shows the estimated development of the minor planet's magnitude.


The all-sky chart below shows the path of the minor planet over the same period as the light curve. The current position is marked yellow.





The following chart shows the path of the minor planet in the next few days. The field of view is optimized for (~10x50) binoculars and finderscopes. A more printer-friendly version of the same chart can be found below.




Ephemerides:
Date       Time       RA (2000)    DEC (2000)    delta   radius  elong  phase   PA    magn
2025-07-01 00:00 UT   08 23 58.1   +31 35 43     3.246    2.360   24.6   10.3    76   12.0 
2025-07-01 03:26 UT   08 24 16.8   +31 34 37     3.247    2.360   24.6   10.3    76   12.0 
2025-07-02 00:00 UT   08 26 08.7   +31 28 02     3.250    2.360   24.2   10.2    76   12.0 
2025-07-03 00:00 UT   08 28 19.0   +31 20 16     3.254    2.360   23.8   10.0    76   12.0 
2025-07-04 00:00 UT   08 30 29.2   +31 12 25     3.259    2.360   23.4    9.8    75   12.0 
2025-07-05 00:00 UT   08 32 39.2   +31 04 29     3.263    2.361   23.0    9.7    75   12.0 
2025-07-06 00:00 UT   08 34 49.0   +30 56 27     3.267    2.361   22.6    9.5    74   12.0 
2025-07-07 00:00 UT   08 36 58.5   +30 48 20     3.271    2.361   22.2    9.4    74   12.0 
2025-07-08 00:00 UT   08 39 07.9   +30 40 09     3.274    2.361   21.8    9.2    73   12.0 
2025-07-09 00:00 UT   08 41 17.0   +30 31 51     3.278    2.361   21.4    9.1    73   12.0 
2025-07-10 00:00 UT   08 43 26.0   +30 23 29     3.282    2.361   21.0    8.9    72   12.0 
2025-07-11 00:00 UT   08 45 34.7   +30 15 02     3.285    2.361   20.7    8.7    72   12.0 
2025-07-12 00:00 UT   08 47 43.2   +30 06 30     3.289    2.362   20.3    8.6    71   11.9 
2025-07-13 00:00 UT   08 49 51.5   +29 57 53     3.292    2.362   19.9    8.4    71   11.9 
2025-07-14 00:00 UT   08 51 59.5   +29 49 11     3.295    2.362   19.5    8.3    70   11.9 
2025-07-15 00:00 UT   08 54 07.3   +29 40 25     3.299    2.362   19.2    8.1    69   11.9 
2025-07-16 00:00 UT   08 56 14.9   +29 31 33     3.302    2.362   18.8    8.0    69   11.9 
2025-07-17 00:00 UT   08 58 22.3   +29 22 37     3.305    2.363   18.4    7.8    68   11.9 
2025-07-18 00:00 UT   09 00 29.5   +29 13 36     3.308    2.363   18.1    7.7    67   11.9 


    Terminology:
            
    delta:  distance between minor planet and earth in AU
    radius: distance between minor planet and sun in AU
    magn:   magnitude (brightness) estimate    
    ra:     right ascension in hours (24h = 360deg)
    dec:    declination in degrees
    elong:  elongation in degrees (angle sun-earth-minor planet)    
    phase:  phase angle in degrees (angle sun-minor planet-earth)        
    AU:     Astronomical Unit (mean distance between earth and sun: 149597870.7 km
    

Orbital elements provided by the MPC (Minor Planet Center).
Calculations by a modified version of AAPlus, a C# implementation of the AA+ project by PJ Naughter from the algorithms presented in the book "Astronomical Algorithms" by Jean Meeus.
NGC2000 dso catalog and star labels from VizieR as provided by the Strasbourg astronomical Data Center.
Tycho2 catalog from the ESO archive.